OPS 1948

导读

OPS 1948是美国于1979年10月1日08:00发射的军用卫星,OPS编号常被用于美国军方保密航天任务,该卫星大概率属于美军早期侦察或军用通信体系,依托美国成熟的运载火箭技术进入预定轨道,服役期间承担军事领域特定空间任务,是冷战时期美国航天军事部署的组成部分,反映了当时美国在航天军事应用领域的发展水平。

基本信息
目录编号:
11558
目录名称:
OPS 1948
国际标识:
1979-086A
轨道中心:
EARTH
卫星名称:
OPS 1948
卫星全名:
--
卫星状态:
在轨 (已飞行17061 天)
发射日期:
1979-10-01 UTC
国别 :
美国 (US)
星等 :
--
轨道信息
数据来源 国际轨道数据 AOE轨道数据
星历时间 2026-06-17T02:21:45+0800
1天前
查看轨道信息
2026-06-17T13:00:00+0800
17小时前
查看轨道信息
半长轴 42192.785km 42192.701km
偏心率 0.1314984 0.1314964
轨道倾角 6.027° 6.027°
近地点辐角 77.595° 77.597°
升交点赤经 11.862° 11.867°
平近点角 126.166° 285.999°
近地点 30266.364km 30266.375km
远地点 41362.932km 41362.753km
周期 1437.530分钟 1437.526分钟
每日圈数 1.001718 1.001721
详细信息
使用方式:
暂无
2D轨道图
3D轨道图
轨道高度分析图
轨道倾角分析图
轨道综合分析图
查看轨道综合分析图